Location: Complexul Astronomic Baia Mare
(47.6577°N, 23.5639°E)
Time: 06:49:11
(UTC+03:00)

ISS - Pass Details

Date: 18 May 2017
Orbit: 402 x 408 km, 51.6° (Epoch: 29 May)

Event Time Altitude Azimuth Distance (km) Brightness Sun altitude
Exits shadow 03:23:19 20° 284° (WNW) 1,013 -2.0 -17.5°
Maximum altitude 03:25:17 45° 349° (N) 564 -2.8 -17.3°
Drops below altitude 10° 03:28:28 10° 64° (ENE) 1,465 -0.2 -17.1°
Sets 03:30:36 0° 71° (ENE) 2,325 0.8 -16.9°
